Flag for India Weather past 2 weeks in Lucknow, Uttar Pradesh, India

Now
90 °F

Broken clouds.


Feels Like: 108 °F
Forecast: 80 / 88 °F
Wind: 7 mph from Northeast

Location: Lucknow / Amausi

Current Time: Jul 6, 2015 at 3:45:58 PM

Latest Report: Jul 6, 2015 at 3:00 PM


Visibility: 3 mi

Pressure: 29.47 "Hg

Humidity: 75%

Dew point: 81 °F

Location of LucknowLocation

Historic Weather in Lucknow — Graph

°F

Lucknow temperature yesterday

Maximum temperature yesterday: 106 °F (at 1:30 PM)
Minimum temperature yesterday: 82 °F (at 10:00 PM)
Average temperature yesterday: 96 °F

Past Weeks' High & Low Weather Summary

 TemperatureHumidityPressure
High108 °F (Jun 23, 4:00 PM)100% (Jun 29, 11:30 AM)29.65 "Hg (Jun 29, 11:30 AM)
Low75 °F (Jun 29, 8:00 PM)36% (Jun 23, 4:00 PM)29.27 "Hg (Jun 25, 4:30 PM)
Average91 °F68%29.48 "Hg
* Reported Jun 21 2:30 PM — Jul 6 2:30 PM, Lucknow, Weather by CustomWeather, © 2015

Note: Actual official high and low records may vary slightly from our data, if they occured in-between our weather recording intervals... More about our weather records

Advertising

Lucknow weather history for previous 24 hours

 ConditionsComfort  
Time TempWeatherWind HumidityBarometerVisibility
2:30 PM
Mon, Jul 6
88 °FMore clouds than sun.6 mph79%29.50 "Hg3 mi
11:00 AM82 °FMore clouds than sun.6 mph89%29.53 "Hg2 mi
10:30 AM82 °FLight rain. Cloudy.3 mph89%29.53 "Hg2 mi
9:30 AM81 °FLight rain. Cloudy.No wind94%29.53 "Hg2 mi
8:30 AM81 °FLight rain. Cloudy.2 mph94%29.50 "Hg2 mi
8:00 AM81 °FLight rain. More clouds than sun.2 mph89%29.50 "Hg2 mi
6:30 AM79 °FLight rain. Mostly cloudy.2 mph94%29.50 "Hg1 mi
6:00 AM79 °FLight rain. Mostly cloudy.2 mph94%29.50 "Hg1 mi
5:30 AM79 °FLight rain. Mostly cloudy.6 mph94%29.47 "Hg1 mi
5:00 AM79 °FLight rain. Mostly cloudy.5 mph94%29.47 "Hg1 mi
4:00 AM79 °FThunderstorms. Mostly cloudy.6 mph94%29.47 "Hg1 mi
3:00 AM79 °FThunderstorms. Mostly cloudy.9 mph94%29.47 "Hg1 mi
11:00 PM
Sun, Jul 5
82 °FThunderstorms. Partly cloudy.7 mph89%29.47 "Hg1 mi
10:00 PM82 °FStrong thunderstorms. Overcast.7 mph84%29.47 "Hg1 mi
8:00 PM97 °FLight rain. Mostly cloudy.3 mph56%29.39 "Hg1 mi
7:30 PM102 °FMore clouds than sun.14 mph48%29.42 "Hg1 mi
7:00 PMN/ABroken clouds.5 mphN/A29.39 "Hg1 mi
6:30 PM102 °FBroken clouds.7 mph48%29.39 "Hg1 mi
6:00 PM86 °FBroken clouds.6 mph79%29.39 "Hg1 mi
4:30 PM106 °FPassing clouds.7 mph43%29.36 "Hg2 mi
4:00 PM106 °FPassing clouds.9 mph45%29.36 "Hg2 mi
3:30 PM106 °FPassing clouds.6 mph45%29.39 "Hg2 mi
3:00 PM106 °FPassing clouds.5 mph45%29.39 "Hg2 mi
Weather by CustomWeather, © 2015

See weather overviewHow to use our weather pages